Flag for U.S.A. Weather past 2 weeks in New Haven, Connecticut, U.S.A.

Now
57 °F

Passing clouds.


Feels Like: 54 °F
Forecast: 53 / 60 °F
Wind: 12 mph from North

Location: Tweed-New Haven Airport

Current Time: Oct 21, 2014 at 10:17:44 PM

Latest Report: Oct 21, 2014 at 9:53 PM


Visibility: 10 mi

Pressure: 29.92 "Hg

Humidity: 83%

Dew point: 52 °F

Location of New HavenLocation

Historic Weather in New Haven — Graph

°F

New Haven temperature yesterday

Maximum temperature yesterday: 62 °F (at 9:53 PM)
Minimum temperature yesterday: 43 °F (at 5:53 AM)
Average temperature yesterday: 53 °F

Past Weeks' High & Low Weather Summary

 TemperatureHumidityPressure
High78 °F (Oct 15, 11:53 AM)92% (Oct 12, 12:53 AM)30.35 "Hg (Oct 12, 12:53 AM)
Low40 °F (Oct 13, 2:53 AM)34% (Oct 19, 2:53 PM)29.54 "Hg (Oct 18, 3:53 PM)
Average61 °F70%29.98 "Hg
* Reported Oct 6 8:53 PM — Oct 21 8:53 PM, New Haven, Weather by CustomWeather, © 2014

Note: Actual official high and low records may vary slightly from our data, if they occured in-between our weather recording intervals... More about our weather records

Advertising

New Haven weather history for previous 24 hours

 ConditionsComfort  
Time TempWeatherWind HumidityBarometerVisibility
8:53 PM
Oct 21
59 °FPassing clouds.9 mph84%29.90 "Hg10 mi
7:53 PM58 °FRain. Fog.6 mph87%29.89 "Hg6 mi
6:53 PM59 °FPartly sunny.3 mph81%29.87 "Hg10 mi
5:53 PM61 °FBroken clouds.5 mph75%29.86 "Hg10 mi
4:53 PM60 °FBroken clouds.5 mph78%29.86 "Hg10 mi
3:53 PM63 °FRain. Cloudy.5 mph75%29.85 "Hg6 mi
2:53 PM67 °FOvercast.7 mph61%29.86 "Hg10 mi
1:53 PM68 °FBroken clouds.9 mph57%29.87 "Hg10 mi
12:53 PM69 °FBroken clouds.8 mph59%29.88 "Hg10 mi
11:53 AM67 °FSunny.13 mph63%29.90 "Hg10 mi
10:53 AM67 °FBroken clouds.12 mph66%29.91 "Hg10 mi
9:53 AM58 °FPartly sunny.5 mph70%29.93 "Hg10 mi
8:53 AM54 °FBroken clouds.7 mph77%29.92 "Hg10 mi
7:53 AM52 °FMostly cloudy.6 mph80%29.93 "Hg10 mi
6:53 AM53 °FOvercast.8 mph80%29.91 "Hg10 mi
5:53 AM51 °FPassing clouds.3 mph83%29.91 "Hg10 mi
4:53 AM51 °FClear.5 mph83%29.91 "Hg10 mi
3:53 AM50 °FClear.5 mph80%29.93 "Hg10 mi
2:53 AM52 °FClear.6 mph72%29.94 "Hg10 mi
1:53 AM59 °FPassing clouds.3 mph62%29.96 "Hg10 mi
12:53 AM63 °FPassing clouds.10 mph60%29.97 "Hg10 mi
11:53 PM
Oct 20
62 °FClear.6 mph60%29.97 "Hg10 mi
10:53 PM62 °FClear.7 mph54%29.99 "Hg10 mi
Weather by CustomWeather, © 2014

See weather overviewHow to use our weather pages